Wind_Speed
56 45 42 48 52 54 45 35 26 28 32 30 27 25 24 27 29 27 39 25 22 30 23 50 45 43 44 39 35 22 21 21 17 22 27 29 28 33 36 43 41 44 49
58 41 37 41 47 51 47 37 30 33 36 30 29 24 28 24 33 32 30 25 33 28 23 36 48 47 44 40 26 23 16 22 21 26 29 31 34 35 39 44 44 48 53
56 41 33 33 39 43 43 34 35 43 46 42 35 26 22 34 33 29 27 30 32 23 27 31 42 35 34 33 33 30 26 29 30 29 32 40 38 38 42 47 49 51 55
52 47 29 27 29 35 36 28 30 40 35 32 27 32 29 21 27 17 27 27 23 20 22 26 29 22 21 20 21 29 35 36 36 35 36 36 38 43 44 48 51 54 54
48 50 30 22 21 26 30 25 19 27 26 30 26 14 14 22 23 20 20 15 16 17 21 21 24 21 24 19 22 29 32 36 37 35 35 37 41 44 48 53 54 54 50
46 48 34 17 17 16 22 25 15 13 8 15 21 25 17 19 16 19 20 21 19 20 19 21 18 21 21 24 25 28 29 30 32 34 39 40 43 50 54 57 50 51 55
42 41 43 25 13 12 12 18 19 16 11 8 19 26 21 18 22 20 21 24 22 24 23 18 20 23 26 24 28 30 32 35 37 40 46 48 50 50 51 49 53 56 53
39 40 40 36 15 9 7 8 14 15 12 8 9 21 19 14 15 18 15 22 24 30 29 28 26 24 28 26 27 31 33 38 40 42 47 51 53 50 51 54 57 56 58
38 37 36 40 26 11 6 4 3 8 11 6 7 13 18 24 19 20 19 20 22 20 21 21 22 24 27 31 33 36 39 43 47 50 44 48 52 53 53 54 55 56 57
36 33 37 35 35 23 13 7 4 3 7 7 2 12 22 25 25 28 24 23 22 24 29 30 34 35 36 39 40 42 45 51 52 49 53 53 53 52 49 51 52 54 57
34 34 36 32 36 30 22 14 11 8 5 6 7 5 5 8 17 32 32 30 30 36 33 34 34 36 39 43 42 44 44 45 47 49 43 45 47 48 51 54 58 62 65
33 35 33 35 33 33 24 15 11 11 12 10 10 10 10 10 10 12 14 17 17 16 19 25 28 30 31 33 34 34 35 36 39 43 47 51 53 56 59 63 65 67 68
33 31 33 34 33 35 25 16 13 12 12 15 14 15 17 17 18 18 19 20 22 22 23 25 26 28 30 33 35 38 41 44 46 48 51 54 55 54 54 58 63 65 68
35 26 32 31 33 32 28 21 15 10 12 12 17 19 22 23 22 23 25 27 28 30 30 30 31 32 34 38 40 42 44 46 48 47 50 52 53 56 61 68 73 76 76
36 31 30 32 32 32 30 24 16 15 13 11 12 17 22 24 25 27 28 28 28 29 30 32 34 34 37 38 38 39 40 44 47 53 54 54 59 68 74 79 81 83 82
39 40 34 35 35 33 28 27 21 16 16 13 11 10 14 19 17 21 22 22 23 26 27 28 27 29 29 34 39 40 46 50 55 57 58 64 68 73 78 78 78 81 76
43 41 40 40 36 38 33 33 25 19 20 18 18 16 14 14 18 20 22 24 28 28 33 35 33 33 33 38 40 44 52 54 55 57 62 68 71 80 80 71 69 69 69
48 45 41 37 39 40 36 36 34 23 24 26 20 13 17 18 20 24 28 28 28 29 31 34 37 38 41 43 45 49 48 49 54 59 74 74 76 81 77 66 60 62 65
48 47 44 42 43 41 39 37 35 30 26 25 27 25 21 24 25 27 29 33 35 33 35 37 39 41 45 47 50 53 49 60 64 72 73 76 82 80 81 80 79 78 77
51 47 45 47 49 43 42 38 38 33 29 28 26 29 31 31 31 34 38 40 40 42 45 48 49 51 52 52 56 58 65 67 73 75 79 81 81 84 89 88 86 86 83
56 55 55 54 49 47 44 44 39 40 34 30 29 32 36 40 39 40 42 43 43 46 47 52 55 57 56 58 62 65 70 78 75 76 79 83 82 87 94 93 91 88 88
53 54 48 55 53 51 46 44 44 44 36 36 36 35 38 39 42 48 44 45 46 49 54 59 58 60 62 64 66 70 77 75 75 73 82 84 84 87 92 92 91 91 88
58 58 55 56 55 50 52 50 49 46 44 45 41 37 41 46 46 48 47 48 48 52 56 59 60 65 65 69 72 75 76 78 77 82 85 93 93 92 94 93 91 92 90
62 54 52 56 54 49 48 55 48 46 52 49 46 41 48 44 45 51 53 55 55 54 58 60 62 66 70 73 74 77 80 82 81 85 88 92 97 95 96 94 95 93 90
61 56 53 52 56 54 49 59 54 55 54 49 47 47 49 47 50 55 59 60 64 60 57 62 65 69 71 74 76 77 81 83 84 88 91 93 98 97 98 96 96 95 91
51 51 50 54 57 51 56 60 53 54 53 49 50 45 47 49 55 58 62 65 61 58 61 64 65 68 73 76 76 82 84 83 86 89 90 96 97 102 100 100 101 99 94
Wind_Direction
352 351 359 1 7 13 23 31 57 75 83 90 107 126 138 148 145 148 152 137 157 175 172 176 164 171 180 185 180 183 195 210 226 238 240 245 250 264 269 277 276 287 294
351 352 3 5 9 16 22 36 70 85 88 95 104 112 110 131 155 149 159 131 116 120 140 175 171 171 175 180 187 187 201 213 234 243 249 253 266 271 274 278 289 294 298
351 351 6 8 9 16 24 42 77 90 83 83 96 83 111 135 121 134 137 134 133 123 137 153 180 186 194 204 207 219 240 233 240 246 262 267 265 274 285 285 292 299 303
349 355 2 12 12 17 23 44 81 84 78 76 82 88 89 139 127 112 114 110 118 132 152 149 159 158 172 193 203 216 224 240 251 252 259 265 272 280 286 297 300 301 301
349 353 353 14 14 16 20 40 65 108 124 117 111 115 108 110 129 123 133 132 133 146 149 155 166 183 197 202 214 220 233 241 251 254 266 271 278 286 291 293 297 299 296
347 355 351 11 20 14 18 20 44 106 126 113 145 139 139 147 151 157 160 160 163 166 180 180 198 200 200 208 223 227 236 248 259 268 268 277 284 285 292 294 292 295 299
338 345 353 347 24 22 9 14 20 31 150 184 161 150 153 163 180 183 184 184 186 185 186 197 201 215 212 236 243 247 250 262 271 271 273 276 282 292 293 292 294 297 301
330 343 349 354 346 21 20 356 1 16 18 0 200 195 195 203 191 212 207 215 219 222 220 224 237 245 238 245 260 259 264 266 273 281 281 282 286 289 286 292 296 297 296
321 337 340 351 350 332 0 357 343 332 359 347 300 240 237 230 222 222 226 224 221 229 237 241 247 245 244 246 252 257 263 267 275 285 288 287 287 288 290 290 290 290 289
312 319 331 343 355 349 320 316 315 300 296 331 285 249 256 238 239 225 232 238 230 238 239 243 248 250 254 257 261 266 269 278 276 285 287 287 287 290 290 291 290 287 284
307 305 321 330 342 0 347 330 297 270 245 262 265 257 247 252 251 240 235 244 262 252 245 250 247 251 256 264 269 272 279 283 283 287 286 285 285 286 286 286 288 288 289
301 295 306 315 325 338 351 331 314 294 283 266 264 263 258 259 252 246 244 249 255 259 261 267 271 273 274 275 275 275 277 278 279 280 282 285 288 289 291 293 294 294 296
288 289 297 305 314 324 344 345 333 300 283 268 264 268 264 267 271 272 272 276 277 275 271 269 270 272 273 275 275 275 276 281 285 288 291 294 296 297 297 299 299 298 300
277 278 289 297 303 314 321 338 333 341 312 277 265 262 262 263 266 270 270 268 268 268 268 269 270 273 275 277 282 285 287 288 291 295 296 297 298 300 302 303 304 304 303
271 276 281 285 295 301 311 318 317 318 315 322 289 276 269 269 275 275 274 274 275 276 277 277 278 282 288 291 293 296 300 303 307 300 296 299 296 304 304 303 303 302 301
269 272 265 276 283 288 299 310 304 292 301 306 314 313 290 278 291 289 285 288 294 285 286 291 290 300 298 300 303 301 303 305 302 306 308 308 308 309 313 308 305 305 303
269 265 260 268 278 279 290 299 300 297 286 291 306 307 320 318 312 309 300 303 301 290 292 298 301 299 300 303 308 312 319 322 319 311 314 317 318 320 320 314 310 307 305
263 263 262 266 272 275 281 287 300 286 291 290 297 306 309 316 305 299 295 291 295 296 300 297 301 298 293 302 312 314 312 322 326 327 328 328 323 320 319 320 314 317 316
255 255 249 262 265 271 278 280 286 288 277 284 280 283 286 293 294 296 305 295 293 289 293 298 299 296 295 301 305 309 311 313 319 325 327 324 321 323 326 328 326 325 322
245 245 254 255 260 266 274 279 275 285 273 273 277 281 283 280 287 290 291 291 290 292 294 295 296 298 299 298 301 304 308 313 319 323 324 324 325 331 332 329 327 325 324
243 248 252 257 255 261 273 270 275 282 269 265 265 275 282 283 283 285 284 286 290 292 293 293 296 298 297 296 299 301 306 311 316 322 327 328 331 333 333 329 327 326 326
244 248 243 241 252 259 265 265 273 276 265 266 269 269 273 277 286 286 282 287 288 291 291 296 297 295 293 297 300 305 309 314 319 322 327 329 334 333 333 328 327 327 326
238 238 239 248 246 258 258 261 268 270 273 274 275 267 273 272 278 280 278 283 288 291 292 294 293 298 296 298 300 306 311 318 320 323 322 328 334 334 331 330 329 328 327
240 247 249 254 253 253 257 263 264 267 273 277 281 265 269 271 275 276 278 285 289 291 293 293 295 296 299 302 305 308 314 318 319 320 323 326 331 334 331 332 331 328 329
243 248 242 238 247 252 258 258 263 271 271 275 281 266 263 268 274 275 279 287 294 296 293 295 297 300 300 303 306 310 312 314 317 320 322 323 330 333 330 332 331 330 329
237 236 235 239 249 249 255 253 258 266 273 277 281 267 265 274 272 279 283 288 290 288 291 296 300 304 303 303 305 309 312 313 318 319 320 323 329 331 331 332 332 332 331
Height
10535 10524 10513 10501 10490 10475 10463 10452 10445 10444 10444 10445 10447 10449 10453 10458 10464 10471 10478 10488 10498 10502 10509 10513 10522 10532 10541 10548 10554 10559 10563 10567 10570 10573 10575 10576 10576 10576 10574 10572 10569 10564 10560
10538 10528 10518 10508 10497 10488 10476 10467 10459 10456 10458 10458 10460 10463 10468 10472 10477 10484 10490 10497 10499 10504 10509 10514 10525 10533 10540 10547 10553 10556 10561 10565 10567 10568 10570 10571 10571 10568 10566 10563 10559 10555 10551
10540 10531 10522 10513 10502 10499 10488 10479 10474 10474 10474 10475 10477 10477 10479 10484 10489 10495 10500 10503 10506 10512 10516 10520 10529 10536 10541 10546 10551 10555 10559 10562 10562 10564 10566 10566 10564 10561 10558 10556 10551 10547 10542
10541 10535 10526 10520 10511 10506 10500 10493 10489 10486 10486 10488 10489 10492 10493 10493 10499 10503 10505 10508 10512 10517 10521 10526 10532 10538 10544 10549 10551 10554 10556 10557 10559 10559 10559 10559 10557 10555 10551 10548 10544 10538 10532
10541 10536 10530 10524 10516 10511 10508 10504 10499 10496 10497 10499 10501 10502 10504 10505 10507 10511 10511 10515 10519 10523 10528 10533 10537 10541 10543 10546 10549 10551 10552 10554 10554 10554 10553 10552 10549 10547 10543 10540 10535 10530 10523
10543 10536 10529 10525 10522 10515 10512 10509 10505 10505 10504 10504 10505 10504 10508 10509 10511 10513 10515 10517 10520 10524 10529 10533 10536 10539 10541 10543 10545 10547 10548 10548 10549 10548 10547 10544 10541 10539 10534 10530 10524 10519 10514
10542 10537 10532 10526 10522 10519 10514 10513 10510 10508 10508 10507 10508 10507 10509 10511 10513 10515 10517 10519 10522 10525 10528 10530 10533 10536 10538 10540 10541 10542 10542 10541 10541 10540 10538 10536 10533 10528 10523 10519 10513 10508 10501
10540 10537 10532 10525 10521 10519 10518 10514 10511 10509 10508 10508 10509 10509 10509 10512 10514 10517 10517 10519 10522 10524 10525 10527 10528 10530 10533 10534 10536 10536 10535 10535 10533 10531 10528 10525 10522 10518 10513 10508 10502 10497 10491
10537 10536 10532 10528 10520 10518 10517 10516 10515 10512 10510 10508 10508 10510 10510 10512 10513 10514 10515 10518 10520 10522 10523 10525 10526 10527 10528 10529 10529 10528 10527 10526 10524 10522 10518 10515 10510 10506 10502 10497 10492 10486 10480
10534 10531 10530 10527 10522 10517 10514 10513 10511 10510 10510 10509 10508 10508 10509 10509 10511 10513 10513 10514 10516 10517 10519 10520 10520 10520 10521 10521 10520 10519 10517 10516 10513 10510 10506 10502 10499 10495 10490 10485 10479 10473 10468
10531 10526 10526 10524 10521 10517 10513 10510 10510 10509 10507 10507 10508 10507 10506 10506 10507 10509 10510 10512 10514 10513 10513 10513 10513 10514 10514 10513 10512 10511 10509 10506 10503 10501 10496 10492 10488 10484 10479 10474 10467 10461 10453
10526 10522 10521 10520 10519 10516 10512 10507 10504 10504 10504 10503 10504 10505 10505 10506 10506 10506 10506 10506 10506 10506 10506 10506 10506 10506 10505 10504 10502 10500 10498 10496 10493 10489 10486 10482 10478 10473 10467 10461 10454 10446 10438
10518 10517 10514 10515 10513 10513 10510 10505 10502 10500 10500 10499 10500 10500 10501 10501 10501 10502 10502 10502 10501 10500 10500 10499 10499 10498 10497 10495 10494 10492 10489 10486 10483 10480 10477 10472 10467 10460 10453 10446 10437 10428 10419
10509 10509 10508 10508 10508 10508 10507 10504 10500 10498 10497 10495 10495 10495 10496 10496 10496 10497 10496 10496 10495 10495 10494 10493 10493 10492 10489 10487 10486 10484 10481 10477 10474 10469 10464 10458 10453 10446 10437 10427 10418 10408 10399
10498 10500 10501 10499 10502 10501 10501 10500 10497 10494 10492 10491 10490 10490 10489 10490 10490 10490 10489 10489 10489 10488 10488 10487 10486 10485 10483 10480 10477 10473 10470 10466 10462 10456 10451 10444 10436 10426 10417 10407 10396 10388 10376
10488 10490 10492 10491 10493 10493 10493 10493 10492 10490 10488 10486 10485 10484 10483 10483 10483 10482 10481 10481 10481 10480 10479 10479 10478 10475 10473 10470 10467 10463 10460 10455 10448 10441 10434 10427 10418 10409 10397 10383 10372 10362 10350
10476 10479 10480 10481 10482 10484 10484 10484 10484 10483 10482 10480 10479 10478 10477 10476 10476 10475 10474 10474 10473 10472 10471 10469 10467 10464 10462 10460 10456 10451 10446 10438 10433 10427 10421 10412 10401 10390 10378 10363 10352 10342 10331
10463 10467 10468 10470 10471 10473 10474 10474 10474 10474 10473 10470 10469 10469 10469 10469 10469 10468 10467 10466 10465 10464 10463 10460 10458 10456 10453 10449 10444 10439 10433 10427 10420 10413 10404 10394 10385 10374 10359 10345 10333 10323 10312
10450 10453 10455 10457 10460 10461 10462 10464 10464 10464 10463 10462 10462 10461 10460 10460 10459 10459 10458 10458 10457 10455 10452 10449 10448 10444 10440 10435 10429 10424 10419 10412 10405 10397 10388 10380 10368 10352 10337 10323 10313 10302 10290
10436 10439 10442 10446 10448 10448 10450 10452 10452 10453 10452 10452 10452 10452 10452 10451 10450 10449 10448 10447 10445 10443 10440 10438 10434 10430 10426 10421 10417 10411 10406 10398 10390 10382 10372 10360 10347 10333 10319 10305 10294 10282 10268
10421 10424 10429 10432 10434 10435 10437 10440 10440 10441 10440 10440 10440 10441 10440 10440 10439 10438 10436 10434 10433 10431 10428 10424 10421 10416 10412 10408 10403 10397 10391 10385 10376 10366 10353 10342 10329 10316 10304 10289 10276 10264 10249
10404 10408 10414 10419 10421 10423 10424 10426 10427 10428 10428 10429 10428 10428 10428 10428 10427 10426 10424 10422 10420 10418 10415 10411 10407 10403 10398 10394 10389 10383 10376 10367 10358 10347 10338 10327 10313 10300 10288 10273 10259 10246 10232
10388 10392 10398 10403 10407 10409 10411 10412 10414 10414 10413 10415 10415 10414 10414 10413 10412 10412 10410 10408 10406 10403 10400 10397 10393 10389 10384 10379 10373 10366 10357 10349 10339 10330 10320 10309 10296 10284 10271 10257 10243 10228 10214
10372 10375 10381 10386 10391 10393 10397 10398 10398 10399 10399 10398 10399 10399 10400 10399 10398 10398 10396 10394 10392 10388 10385 10382 10378 10373 10368 10362 10354 10347 10339 10330 10322 10312 10302 10292 10280 10267 10255 10240 10227 10213 10199
10355 10360 10365 10370 10374 10378 10381 10384 10383 10384 10385 10385 10384 10383 10384 10383 10383 10382 10381 10379 10376 10372 10369 10366 10362 10358 10350 10343 10337 10330 10323 10314 10305 10295 10286 10276 10263 10250 10238 10223 10210 10196 10181
10339 10344 10349 10355 10359 10362 10365 10366 10368 10368 10369 10369 10368 10367 10367 10367 10367 10366 10364 10362 10360 10357 10353 10348 10343 10338 10332 10326 10320 10312 10305 10296 10288 10278 10268 10259 10244 10233 10219 10205 10192 10178 10165